Weather History for Chevak, AK

Change the Weather History Date:

Wednesday, October 10, 2012

  Actual Average (PAHP) Record (PAHP)
Temperature  
Mean Temperature 37 °F -  
Max Temperature 42 °F 36 °F 57 °F (2007)
Min Temperature 32 °F 30 °F 24 °F (2000)
Degree Days  
Heating Degree Days 28    
Moisture  
Dew Point 28 °F    
Average Humidity 72    
Maximum Humidity 82    
Minimum Humidity 55    
Precipitation  
Precipitation 0.00 in - - ()
Sea Level Pressure  
Sea Level Pressure 30.15 in    
Wind  
Wind Speed 21 mph (NE)    
Max Wind Speed 29 mph    
Max Gust Speed 38 mph    
Visibility 10 miles    
Events      
Averages and records for this station are not official NWS values.
T = Trace of Precipitation, MM = Missing Value Source: NWS Daily Summary

Daily Weather History Graph

Daily Weather History Graph

Search for Another Location

Airport:

Trip Planner

Search our weather history database for the weather conditions in past years. The results will help you decide how hot, cold, wet, or windy it might be!

Date:

Astronomy

Oct. 10, 2012 Rise Set
Actual Time 9:34 AM AKDT 8:02 PM AKDT
Civil Twilight 8:50 AM AKDT 8:46 PM AKDT
Nautical Twilight 7:59 AM AKDT 9:36 PM AKDT
Astronomical Twilight 7:07 AM AKDT 10:28 PM AKDT
Moon 3:02 AM AKDT (10/10) 6:21 PM AKDT (10/10)
Length of Visible Light 11h 56m
Length of Day
10h 28m
Waning Crescent, 26% of the Moon is Illuminated
Oct 10
Waning Crescent
Oct 15
New
Oct 21
First Quarter
Oct 29
Full
Nov 6
Last Quarter

Hourly Weather History & Observations

Time (AKDT) Temp. Windchill Dew Point Humidity Pressure Visibility Wind Dir Wind Speed Gust Speed Precip Events Conditions
12:57 AM 35.1 °F 24.5 °F 30.0 °F 82% 30.24 in 10.0 mi NE 18.4 mph 24.2 mph N/A   Clear
1:57 AM 35.1 °F 24.1 °F 28.9 °F 78% 30.24 in 10.0 mi NE 19.6 mph 24.2 mph N/A   Clear
2:57 AM 35.1 °F 24.5 °F 28.9 °F 78% 30.23 in 10.0 mi NE 18.4 mph 26.5 mph N/A   Clear
3:57 AM 35.1 °F 24.1 °F 28.9 °F 78% 30.23 in 10.0 mi NE 19.6 mph - N/A   Clear
4:57 AM 34.0 °F 23.0 °F 28.0 °F 79% 30.23 in 10.0 mi NE 18.4 mph 24.2 mph N/A   Clear
5:57 AM 34.0 °F 23.0 °F 28.0 °F 79% 30.22 in 10.0 mi NE 18.4 mph - N/A   Clear
6:57 AM 34.0 °F 22.4 °F 28.0 °F 79% 30.20 in 10.0 mi NE 20.7 mph 26.5 mph N/A   Clear
7:57 AM 33.1 °F 20.9 °F 28.0 °F 82% 30.20 in 10.0 mi ENE 21.9 mph 26.5 mph N/A   Clear
8:57 AM 33.1 °F 20.3 °F 27.0 °F 78% 30.19 in 10.0 mi NE 24.2 mph 32.2 mph N/A   Clear
9:57 AM 32.0 °F 19.5 °F 27.0 °F 82% 30.18 in 10.0 mi NE 21.9 mph 27.6 mph N/A   Clear
10:57 AM 33.1 °F 20.1 °F 27.0 °F 78% 30.18 in 10.0 mi NE 25.3 mph 28.8 mph N/A   Clear
11:57 AM 34.0 °F 20.5 °F 27.0 °F 75% 30.17 in 10.0 mi NE 28.8 mph 35.7 mph N/A   Clear
12:57 PM 35.1 °F 22.2 °F 28.0 °F 76% 30.16 in 10.0 mi NE 27.6 mph 33.4 mph N/A   Clear
1:57 PM 37.9 °F 25.9 °F 28.0 °F 68% 30.14 in 10.0 mi ENE 28.8 mph 35.7 mph N/A   Clear
2:57 PM 39.0 °F 28.5 °F 28.0 °F 65% 30.12 in 10.0 mi NE 23.0 mph 38.0 mph N/A   Clear
3:57 PM 41.0 °F 30.5 °F 28.0 °F 60% 30.10 in 10.0 mi ENE 26.5 mph 35.7 mph N/A   Clear
4:57 PM 42.1 °F 31.5 °F 27.0 °F 55% 30.08 in 10.0 mi ENE 28.8 mph 35.7 mph N/A   Clear
5:57 PM 42.1 °F 32.6 °F 28.0 °F 58% 30.07 in 10.0 mi NE 23.0 mph 32.2 mph N/A   Clear
6:57 PM 41.0 °F 31.1 °F 27.0 °F 57% 30.05 in 10.0 mi ENE 23.0 mph 28.8 mph N/A   Clear
7:57 PM 39.0 °F 28.8 °F 26.1 °F 60% 30.05 in 10.0 mi ENE 21.9 mph 31.1 mph N/A   Clear
8:57 PM 36.0 °F 26.0 °F 26.1 °F 67% 30.06 in 10.0 mi NE 17.3 mph - N/A   Clear
9:57 PM 36.0 °F 25.0 °F 25.0 °F 64% 30.05 in 10.0 mi NE 20.7 mph 26.5 mph N/A   Clear
11:57 PM 34.0 °F 21.8 °F 26.1 °F 73% 30.03 in 10.0 mi NE 23.0 mph 27.6 mph N/A   Clear